Voltar ao catálogo

FREGAT R/B

AtivoHEO
NORAD 43509·ROCKET BODY·🇷🇺 Russia

Lançado Jun 16, 2018 de Plesetsk Cosmodrome

Loading…

Próximas Passagens (próximas 24 horas)

TLE

AtualizadoSource: Space-Track

Época: Sep 14, 2026, 05:13 UTC

1 43509U 18053B   26257.21791524 -.00000003  00000-0  00000-0 0  9995
2 43509  65.6409  75.2011 0099098  88.3835 272.7865  2.09215673 63000

Acompanhe FREGAT R/B em tempo real com AllMySat

Download on the App Store